Precipitable_Water
0.30 0.30 0.30 0.31 0.31 0.31 0.31 0.31 0.31 0.32 0.32 0.32 0.32 0.32 0.32 0.32 0.32 0.32 0.33 0.32 0.32 0.31 0.30 0.30 0.29 0.29 0.29 0.28 0.28 0.27 0.27 0.27 0.26 0.26 0.26 0.26 0.26 0.25 0.25 0.25 0.24 0.25 0.25 0.25 0.25 0.25 0.25 0.25 0.25 0.25 0.24 0.23 0.22 0.21 0.20 0.20 0.19 0.17 0.16 0.14 0.13 0.12 0.12 0.11 0.11 0.11 0.11 0.12 0.11 0.11 0.11 0.11 0.10 0.10 0.09 0.09 0.08 0.08 0.08 0.08 0.08 0.08 0.07 0.07 0.07
0.30 0.30 0.31 0.31 0.30 0.30 0.31 0.31 0.32 0.32 0.32 0.32 0.32 0.32 0.33 0.33 0.34 0.34 0.33 0.34 0.34 0.33 0.32 0.31 0.30 0.29 0.29 0.28 0.28 0.28 0.28 0.27 0.27 0.27 0.26 0.26 0.26 0.26 0.25 0.25 0.24 0.24 0.24 0.24 0.24 0.25 0.25 0.25 0.24 0.24 0.23 0.22 0.21 0.21 0.20 0.19 0.19 0.17 0.16 0.14 0.12 0.12 0.12 0.11 0.11 0.10 0.10 0.11 0.11 0.11 0.11 0.10 0.09 0.09 0.09 0.08 0.08 0.08 0.07 0.07 0.07 0.07 0.07 0.07 0.07
0.30 0.30 0.30 0.30 0.30 0.31 0.31 0.31 0.32 0.32 0.32 0.32 0.32 0.33 0.34 0.34 0.35 0.34 0.34 0.34 0.34 0.33 0.33 0.32 0.31 0.30 0.29 0.29 0.29 0.28 0.28 0.28 0.27 0.27 0.27 0.27 0.26 0.26 0.25 0.25 0.24 0.24 0.24 0.24 0.24 0.24 0.24 0.24 0.24 0.23 0.23 0.21 0.21 0.20 0.20 0.19 0.18 0.17 0.15 0.13 0.12 0.12 0.12 0.11 0.11 0.10 0.10 0.10 0.10 0.10 0.10 0.09 0.09 0.09 0.09 0.08 0.08 0.08 0.07 0.07 0.07 0.07 0.07 0.07 0.07
0.30 0.30 0.30 0.30 0.31 0.31 0.31 0.31 0.32 0.32 0.32 0.32 0.33 0.33 0.34 0.35 0.35 0.35 0.35 0.35 0.34 0.33 0.33 0.32 0.31 0.31 0.30 0.29 0.29 0.29 0.28 0.28 0.28 0.28 0.27 0.27 0.26 0.25 0.25 0.25 0.25 0.24 0.24 0.24 0.24 0.24 0.24 0.24 0.23 0.23 0.22 0.21 0.20 0.20 0.19 0.19 0.18 0.16 0.14 0.12 0.12 0.11 0.11 0.11 0.11 0.11 0.10 0.09 0.09 0.09 0.09 0.09 0.08 0.09 0.08 0.08 0.08 0.07 0.07 0.07 0.07 0.06 0.06 0.07 0.07
0.30 0.30 0.30 0.30 0.31 0.31 0.31 0.32 0.32 0.32 0.32 0.33 0.33 0.34 0.34 0.35 0.35 0.35 0.34 0.34 0.33 0.33 0.32 0.32 0.31 0.30 0.30 0.29 0.29 0.29 0.29 0.29 0.28 0.28 0.27 0.27 0.26 0.26 0.25 0.25 0.25 0.24 0.24 0.24 0.24 0.24 0.24 0.23 0.23 0.22 0.21 0.20 0.19 0.19 0.19 0.18 0.17 0.15 0.13 0.12 0.11 0.11 0.11 0.11 0.11 0.10 0.09 0.09 0.08 0.09 0.09 0.08 0.08 0.08 0.08 0.07 0.07 0.07 0.06 0.06 0.06 0.06 0.06 0.06 0.06
0.31 0.30 0.31 0.31 0.31 0.31 0.32 0.32 0.32 0.32 0.32 0.33 0.34 0.34 0.34 0.34 0.34 0.34 0.33 0.32 0.32 0.32 0.31 0.31 0.31 0.31 0.30 0.30 0.30 0.29 0.29 0.29 0.28 0.28 0.27 0.27 0.26 0.26 0.25 0.25 0.25 0.25 0.25 0.25 0.24 0.24 0.23 0.23 0.22 0.21 0.20 0.19 0.19 0.18 0.18 0.17 0.16 0.14 0.12 0.11 0.11 0.11 0.11 0.10 0.10 0.09 0.09 0.08 0.08 0.08 0.08 0.08 0.07 0.07 0.07 0.07 0.06 0.06 0.06 0.06 0.06 0.06 0.06 0.06 0.06
0.31 0.31 0.31 0.31 0.31 0.32 0.32 0.32 0.32 0.32 0.33 0.33 0.34 0.34 0.34 0.34 0.33 0.33 0.33 0.32 0.32 0.32 0.32 0.31 0.31 0.31 0.30 0.30 0.30 0.29 0.29 0.29 0.28 0.28 0.27 0.27 0.26 0.26 0.26 0.26 0.25 0.25 0.25 0.25 0.24 0.24 0.23 0.22 0.21 0.20 0.20 0.19 0.18 0.18 0.17 0.16 0.15 0.13 0.11 0.11 0.10 0.10 0.09 0.09 0.09 0.09 0.08 0.08 0.08 0.08 0.07 0.07 0.07 0.06 0.07 0.07 0.06 0.06 0.05 0.05 0.05 0.06 0.06 0.06 0.06
0.31 0.31 0.32 0.32 0.32 0.32 0.32 0.33 0.33 0.33 0.33 0.34 0.33 0.33 0.33 0.33 0.33 0.33 0.33 0.32 0.32 0.32 0.31 0.31 0.31 0.31 0.30 0.30 0.30 0.29 0.29 0.28 0.28 0.28 0.27 0.27 0.26 0.26 0.26 0.26 0.25 0.25 0.24 0.24 0.23 0.22 0.22 0.21 0.20 0.20 0.19 0.19 0.18 0.17 0.16 0.15 0.13 0.10 0.10 0.10 0.09 0.09 0.09 0.09 0.09 0.08 0.08 0.08 0.07 0.07 0.07 0.07 0.07 0.07 0.07 0.06 0.06 0.06 0.06 0.05 0.05 0.05 0.05 0.06 0.06
0.32 0.32 0.32 0.31 0.31 0.32 0.32 0.32 0.33 0.33 0.33 0.33 0.33 0.33 0.33 0.33 0.34 0.34 0.33 0.33 0.33 0.32 0.32 0.32 0.31 0.30 0.30 0.30 0.29 0.29 0.28 0.28 0.28 0.27 0.27 0.27 0.27 0.26 0.26 0.25 0.25 0.24 0.23 0.23 0.22 0.22 0.21 0.20 0.20 0.19 0.19 0.18 0.17 0.16 0.15 0.13 0.10 0.09 0.09 0.09 0.09 0.09 0.09 0.09 0.08 0.08 0.08 0.07 0.07 0.07 0.07 0.06 0.06 0.06 0.05 0.05 0.05 0.05 0.05 0.06 0.05 0.05 0.05 0.05 0.06
0.32 0.31 0.31 0.31 0.31 0.31 0.32 0.32 0.32 0.33 0.33 0.33 0.33 0.33 0.33 0.33 0.33 0.33 0.33 0.33 0.32 0.32 0.31 0.31 0.30 0.29 0.29 0.28 0.28 0.28 0.28 0.28 0.28 0.27 0.27 0.27 0.27 0.26 0.25 0.24 0.24 0.23 0.22 0.22 0.21 0.21 0.20 0.20 0.19 0.18 0.17 0.16 0.15 0.14 0.13 0.10 0.09 0.09 0.09 0.09 0.09 0.09 0.08 0.08 0.08 0.08 0.07 0.07 0.06 0.06 0.06 0.06 0.06 0.06 0.06 0.05 0.06 0.06 0.06 0.06 0.05 0.05 0.06 0.05 0.06
0.31 0.31 0.30 0.31 0.31 0.31 0.31 0.31 0.32 0.32 0.32 0.32 0.33 0.33 0.33 0.33 0.32 0.32 0.31 0.31 0.30 0.30 0.29 0.29 0.28 0.28 0.27 0.27 0.27 0.27 0.27 0.27 0.27 0.27 0.27 0.27 0.26 0.25 0.24 0.24 0.23 0.22 0.21 0.20 0.19 0.19 0.18 0.18 0.17 0.16 0.16 0.15 0.14 0.13 0.10 0.09 0.09 0.09 0.09 0.09 0.09 0.09 0.08 0.08 0.08 0.08 0.07 0.07 0.07 0.07 0.06 0.06 0.06 0.06 0.06 0.06 0.06 0.06 0.06 0.06 0.06 0.06 0.05 0.05 0.04
0.30 0.30 0.31 0.31 0.31 0.31 0.31 0.31 0.31 0.31 0.31 0.31 0.31 0.31 0.31 0.31 0.30 0.30 0.29 0.29 0.28 0.28 0.27 0.27 0.27 0.27 0.27 0.27 0.26 0.26 0.26 0.27 0.27 0.27 0.27 0.26 0.25 0.24 0.23 0.22 0.21 0.20 0.19 0.19 0.18 0.17 0.17 0.16 0.16 0.15 0.14 0.14 0.12 0.10 0.10 0.09 0.09 0.09 0.09 0.09 0.09 0.09 0.09 0.08 0.08 0.07 0.07 0.07 0.07 0.07 0.06 0.06 0.06 0.06 0.06 0.06 0.06 0.06 0.06 0.06 0.06 0.06 0.05 0.05 0.05
0.30 0.30 0.30 0.30 0.30 0.30 0.30 0.30 0.30 0.30 0.29 0.29 0.29 0.28 0.28 0.28 0.27 0.27 0.27 0.27 0.27 0.27 0.26 0.26 0.26 0.26 0.26 0.26 0.25 0.25 0.25 0.25 0.25 0.25 0.25 0.24 0.24 0.23 0.21 0.20 0.19 0.18 0.18 0.17 0.17 0.16 0.16 0.15 0.14 0.14 0.13 0.11 0.10 0.09 0.09 0.09 0.09 0.10 0.10 0.10 0.10 0.09 0.10 0.10 0.10 0.09 0.08 0.07 0.07 0.07 0.07 0.07 0.07 0.07 0.07 0.07 0.07 0.06 0.06 0.06 0.06 0.06 0.06 0.06 0.06
0.29 0.29 0.30 0.30 0.30 0.30 0.29 0.29 0.29 0.28 0.28 0.27 0.27 0.27 0.26 0.26 0.26 0.26 0.26 0.26 0.26 0.25 0.25 0.25 0.25 0.24 0.24 0.24 0.23 0.23 0.23 0.23 0.23 0.22 0.22 0.22 0.22 0.21 0.20 0.19 0.18 0.17 0.17 0.16 0.16 0.15 0.15 0.14 0.13 0.11 0.10 0.09 0.09 0.09 0.09 0.09 0.09 0.09 0.10 0.10 0.10 0.10 0.10 0.10 0.10 0.10 0.10 0.09 0.08 0.07 0.07 0.08 0.07 0.07 0.07 0.08 0.07 0.06 0.06 0.06 0.06 0.06 0.06 0.06 0.06
0.29 0.29 0.29 0.29 0.29 0.29 0.29 0.28 0.27 0.27 0.26 0.26 0.26 0.26 0.26 0.26 0.26 0.26 0.25 0.25 0.24 0.24 0.24 0.23 0.23 0.23 0.22 0.22 0.21 0.20 0.20 0.20 0.21 0.21 0.21 0.21 0.20 0.20 0.19 0.18 0.17 0.16 0.16 0.15 0.15 0.14 0.13 0.12 0.10 0.09 0.09 0.09 0.09 0.09 0.09 0.09 0.09 0.09 0.09 0.09 0.09 0.09 0.10 0.10 0.10 0.10 0.10 0.10 0.09 0.09 0.08 0.08 0.08 0.08 0.08 0.08 0.08 0.07 0.07 0.07 0.07 0.07 0.07 0.07 0.07
0.29 0.29 0.29 0.29 0.28 0.28 0.27 0.27 0.26 0.26 0.25 0.25 0.25 0.25 0.25 0.25 0.24 0.24 0.24 0.23 0.23 0.23 0.22 0.21 0.20 0.20 0.19 0.19 0.19 0.18 0.18 0.19 0.19 0.19 0.19 0.19 0.19 0.18 0.18 0.17 0.16 0.15 0.15 0.14 0.13 0.13 0.12 0.11 0.10 0.09 0.09 0.09 0.09 0.09 0.10 0.10 0.09 0.09 0.09 0.09 0.09 0.09 0.09 0.09 0.10 0.10 0.09 0.09 0.10 0.10 0.10 0.09 0.09 0.09 0.08 0.08 0.08 0.08 0.08 0.08 0.08 0.08 0.07 0.06 0.06
0.29 0.28 0.28 0.27 0.27 0.27 0.26 0.26 0.25 0.25 0.25 0.25 0.24 0.24 0.23 0.23 0.23 0.22 0.21 0.21 0.20 0.19 0.18 0.18 0.18 0.17 0.17 0.16 0.16 0.16 0.16 0.16 0.17 0.17 0.17 0.17 0.16 0.16 0.15 0.15 0.14 0.14 0.13 0.13 0.12 0.12 0.11 0.10 0.10 0.10 0.09 0.09 0.10 0.10 0.11 0.11 0.10 0.09 0.09 0.09 0.09 0.09 0.09 0.09 0.10 0.10 0.10 0.11 0.11 0.11 0.11 0.11 0.11 0.11 0.11 0.11 0.10 0.09 0.09 0.08 0.07 0.07 0.07 0.06 0.06
0.27 0.27 0.26 0.26 0.26 0.26 0.25 0.25 0.25 0.24 0.24 0.23 0.23 0.22 0.22 0.21 0.21 0.20 0.18 0.17 0.16 0.16 0.16 0.15 0.15 0.15 0.14 0.14 0.14 0.13 0.13 0.13 0.14 0.14 0.14 0.14 0.14 0.14 0.13 0.12 0.12 0.12 0.11 0.11 0.11 0.11 0.11 0.11 0.11 0.11 0.10 0.10 0.10 0.11 0.11 0.11 0.11 0.10 0.10 0.09 0.09 0.09 0.09 0.09 0.09 0.09 0.10 0.10 0.11 0.11 0.11 0.12 0.12 0.11 0.11 0.11 0.11 0.11 0.09 0.08 0.08 0.08 0.07 0.07 0.06
0.26 0.25 0.25 0.25 0.25 0.25 0.25 0.25 0.24 0.23 0.23 0.22 0.22 0.21 0.20 0.19 0.18 0.17 0.16 0.15 0.15 0.14 0.14 0.13 0.13 0.13 0.12 0.12 0.12 0.11 0.11 0.11 0.12 0.12 0.12 0.12 0.12 0.11 0.11 0.10 0.10 0.09 0.09 0.09 0.10 0.10 0.10 0.11 0.11 0.11 0.10 0.10 0.10 0.11 0.11 0.11 0.11 0.11 0.10 0.10 0.09 0.09 0.09 0.09 0.09 0.09 0.09 0.09 0.09 0.09 0.09 0.09 0.10 0.11 0.11 0.11 0.12 0.12 0.11 0.10 0.09 0.08 0.07 0.07 0.07
0.25 0.25 0.25 0.25 0.25 0.24 0.24 0.23 0.23 0.23 0.22 0.21 0.20 0.19 0.17 0.16 0.15 0.15 0.14 0.14 0.13 0.13 0.12 0.12 0.11 0.11 0.11 0.11 0.11 0.10 0.10 0.10 0.09 0.09 0.09 0.09 0.09 0.09 0.09 0.09 0.09 0.09 0.09 0.09 0.09 0.09 0.09 0.10 0.10 0.10 0.10 0.11 0.11 0.11 0.12 0.12 0.11 0.11 0.11 0.10 0.09 0.09 0.10 0.09 0.09 0.09 0.09 0.09 0.08 0.08 0.08 0.08 0.08 0.08 0.08 0.08 0.08 0.09 0.09 0.10 0.10 0.09 0.08 0.07 0.07
0.25 0.24 0.24 0.24 0.24 0.23 0.23 0.23 0.22 0.21 0.20 0.19 0.17 0.16 0.15 0.14 0.14 0.13 0.12 0.12 0.12 0.11 0.11 0.11 0.10 0.10 0.10 0.10 0.09 0.09 0.09 0.08 0.08 0.08 0.08 0.08 0.08 0.09 0.09 0.09 0.09 0.09 0.09 0.09 0.09 0.09 0.09 0.09 0.09 0.09 0.09 0.10 0.11 0.11 0.11 0.11 0.11 0.11 0.11 0.10 0.10 0.10 0.11 0.10 0.10 0.10 0.09 0.09 0.09 0.09 0.09 0.09 0.09 0.09 0.09 0.08 0.08 0.08 0.08 0.08 0.08 0.09 0.09 0.08 0.07
0.24 0.24 0.23 0.23 0.23 0.22 0.22 0.21 0.20 0.19 0.17 0.16 0.15 0.14 0.13 0.13 0.12 0.12 0.11 0.11 0.11 0.10 0.10 0.10 0.09 0.09 0.09 0.09 0.08 0.08 0.08 0.08 0.07 0.07 0.08 0.08 0.08 0.09 0.09 0.09 0.09 0.09 0.09 0.09 0.09 0.09 0.09 0.09 0.09 0.09 0.09 0.10 0.10 0.11 0.11 0.11 0.10 0.10 0.10 0.10 0.11 0.11 0.10 0.11 0.11 0.10 0.10 0.09 0.09 0.09 0.08 0.08 0.08 0.08 0.08 0.08 0.08 0.08 0.08 0.08 0.08 0.08 0.08 0.08 0.08
0.23 0.23 0.22 0.22 0.22 0.21 0.20 0.19 0.17 0.16 0.14 0.13 0.12 0.12 0.12 0.11 0.11 0.11 0.10 0.10 0.10 0.09 0.09 0.09 0.08 0.08 0.08 0.08 0.08 0.08 0.08 0.08 0.08 0.07 0.07 0.07 0.08 0.08 0.09 0.10 0.10 0.10 0.10 0.09 0.09 0.09 0.09 0.09 0.09 0.09 0.10 0.10 0.10 0.10 0.10 0.10 0.10 0.10 0.10 0.11 0.11 0.11 0.11 0.11 0.11 0.10 0.10 0.09 0.09 0.08 0.08 0.08 0.08 0.08 0.08 0.08 0.08 0.08 0.08 0.08 0.08 0.08 0.08 0.08 0.08
0.22 0.22 0.21 0.21 0.20 0.19 0.18 0.16 0.14 0.12 0.11 0.11 0.10 0.10 0.10 0.10 0.10 0.10 0.10 0.09 0.09 0.09 0.08 0.08 0.08 0.07 0.07 0.07 0.07 0.07 0.07 0.07 0.07 0.07 0.07 0.07 0.08 0.08 0.09 0.09 0.10 0.10 0.10 0.10 0.10 0.10 0.10 0.10 0.10 0.10 0.10 0.10 0.10 0.10 0.10 0.11 0.10 0.10 0.10 0.10 0.10 0.10 0.10 0.10 0.10 0.09 0.09 0.09 0.09 0.08 0.08 0.08 0.08 0.08 0.08 0.08 0.08 0.08 0.08 0.08 0.08 0.08 0.08 0.08 0.08
0.21 0.20 0.20 0.19 0.17 0.16 0.14 0.12 0.11 0.10 0.10 0.10 0.09 0.09 0.09 0.09 0.09 0.09 0.09 0.09 0.09 0.08 0.08 0.08 0.07 0.07 0.07 0.07 0.07 0.07 0.07 0.07 0.07 0.07 0.07 0.07 0.07 0.08 0.08 0.09 0.09 0.10 0.09 0.10 0.10 0.10 0.10 0.11 0.10 0.10 0.10 0.10 0.10 0.10 0.10 0.10 0.10 0.10 0.10 0.10 0.10 0.10 0.09 0.09 0.09 0.09 0.08 0.08 0.08 0.08 0.08 0.09 0.09 0.09 0.09 0.09 0.09 0.09 0.09 0.09 0.09 0.08 0.08 0.08 0.08
0.19 0.18 0.17 0.16 0.14 0.13 0.11 0.10 0.10 0.10 0.09 0.09 0.09 0.09 0.09 0.09 0.09 0.09 0.09 0.08 0.08 0.08 0.08 0.07 0.07 0.07 0.07 0.07 0.07 0.07 0.07 0.07 0.07 0.07 0.07 0.07 0.07 0.07 0.08 0.08 0.08 0.08 0.08 0.08 0.09 0.09 0.09 0.10 0.10 0.10 0.10 0.09 0.09 0.09 0.08 0.09 0.09 0.09 0.09 0.09 0.09 0.08 0.08 0.08 0.08 0.08 0.08 0.08 0.08 0.08 0.08 0.09 0.09 0.09 0.10 0.09 0.09 0.08 0.08 0.08 0.08 0.08 0.08 0.08 0.08
0.17 0.15 0.14 0.13 0.12 0.11 0.10 0.10 0.09 0.09 0.09 0.09 0.09 0.09 0.09 0.09 0.09 0.09 0.08 0.08 0.08 0.08 0.08 0.07 0.07 0.07 0.07 0.07 0.06 0.06 0.06 0.06 0.06 0.06 0.07 0.07 0.07 0.07 0.07 0.07 0.07 0.07 0.07 0.07 0.07 0.07 0.07 0.07 0.07 0.07 0.07 0.07 0.07 0.07 0.07 0.07 0.07 0.07 0.08 0.08 0.08 0.07 0.07 0.07 0.07 0.07 0.07 0.08 0.08 0.08 0.08 0.09 0.09 0.09 0.09 0.09 0.09 0.09 0.09 0.08 0.08 0.08 0.08 0.08 0.08
0.14 0.13 0.12 0.11 0.11 0.10 0.10 0.10 0.09 0.09 0.09 0.09 0.09 0.09 0.09 0.09 0.09 0.08 0.08 0.08 0.08 0.08 0.07 0.07 0.07 0.07 0.07 0.06 0.06 0.06 0.06 0.06 0.06 0.06 0.06 0.06 0.06 0.06 0.07 0.07 0.07 0.07 0.07 0.07 0.07 0.07 0.07 0.08 0.08 0.08 0.08 0.08 0.07 0.07 0.07 0.07 0.07 0.07 0.07 0.07 0.07 0.07 0.07 0.08 0.08 0.08 0.08 0.08 0.08 0.08 0.08 0.08 0.08 0.08 0.09 0.09 0.09 0.09 0.09 0.09 0.08 0.08 0.08 0.08 0.07
0.12 0.12 0.11 0.11 0.10 0.10 0.09 0.09 0.09 0.09 0.08 0.08 0.09 0.09 0.09 0.08 0.08 0.08 0.09 0.09 0.09 0.08 0.08 0.07 0.07 0.07 0.07 0.07 0.06 0.06 0.06 0.06 0.06 0.07 0.07 0.07 0.07 0.07 0.07 0.07 0.07 0.07 0.07 0.08 0.08 0.08 0.08 0.07 0.07 0.07 0.07 0.07 0.07 0.07 0.07 0.07 0.07 0.07 0.07 0.07 0.07 0.07 0.07 0.07 0.07 0.07 0.07 0.07 0.07 0.08 0.08 0.08 0.08 0.08 0.08 0.08 0.08 0.09 0.09 0.09 0.09 0.08 0.08 0.08 0.07
0.11 0.11 0.10 0.10 0.09 0.09 0.09 0.08 0.08 0.08 0.08 0.08 0.08 0.08 0.08 0.09 0.09 0.09 0.09 0.09 0.10 0.10 0.09 0.09 0.09 0.09 0.08 0.08 0.08 0.08 0.07 0.08 0.08 0.09 0.09 0.09 0.09 0.09 0.09 0.09 0.08 0.08 0.08 0.08 0.08 0.07 0.07 0.07 0.07 0.07 0.06 0.06 0.06 0.06 0.07 0.07 0.07 0.07 0.07 0.07 0.07 0.07 0.07 0.07 0.07 0.07 0.08 0.08 0.08 0.08 0.08 0.08 0.08 0.08 0.08 0.08 0.08 0.08 0.09 0.09 0.08 0.09 0.08 0.08 0.07
0.10 0.10 0.09 0.09 0.08 0.08 0.08 0.08 0.08 0.08 0.08 0.08 0.08 0.08 0.08 0.08 0.09 0.09 0.09 0.09 0.09 0.09 0.09 0.10 0.10 0.10 0.10 0.09 0.09 0.10 0.09 0.09 0.09 0.09 0.09 0.09 0.10 0.10 0.10 0.10 0.09 0.09 0.09 0.09 0.08 0.07 0.07 0.07 0.06 0.07 0.07 0.07 0.07 0.07 0.07 0.07 0.07 0.07 0.07 0.08 0.08 0.08 0.08 0.08 0.08 0.08 0.08 0.08 0.08 0.08 0.08 0.08 0.08 0.08 0.08 0.08 0.08 0.08 0.08 0.09 0.08 0.08 0.08 0.08 0.07
0.10 0.09 0.09 0.09 0.08 0.08 0.08 0.08 0.08 0.08 0.08 0.08 0.08 0.08 0.08 0.08 0.08 0.08 0.09 0.09 0.09 0.10 0.10 0.10 0.10 0.10 0.10 0.10 0.09 0.10 0.10 0.10 0.09 0.09 0.09 0.09 0.09 0.09 0.09 0.09 0.09 0.09 0.09 0.09 0.08 0.08 0.08 0.07 0.07 0.07 0.07 0.07 0.07 0.08 0.08 0.08 0.08 0.08 0.08 0.08 0.08 0.08 0.08 0.08 0.08 0.08 0.08 0.08 0.08 0.08 0.08 0.08 0.08 0.08 0.08 0.08 0.08 0.08 0.08 0.08 0.08 0.08 0.08 0.08 0.07
0.09 0.09 0.09 0.08 0.08 0.08 0.08 0.08 0.08 0.08 0.08 0.08 0.08 0.08 0.08 0.08 0.07 0.07 0.08 0.09 0.09 0.09 0.09 0.09 0.10 0.10 0.10 0.09 0.09 0.09 0.09 0.09 0.09 0.09 0.09 0.09 0.08 0.09 0.09 0.09 0.09 0.09 0.09 0.09 0.08 0.08 0.08 0.08 0.08 0.08 0.08 0.08 0.08 0.08 0.08 0.08 0.08 0.08 0.08 0.08 0.08 0.08 0.08 0.08 0.08 0.08 0.08 0.08 0.08 0.08 0.08 0.08 0.08 0.07 0.07 0.07 0.07 0.07 0.07 0.07 0.07 0.07 0.07 0.07 0.07
0.09 0.09 0.08 0.08 0.08 0.08 0.08 0.08 0.08 0.08 0.08 0.08 0.08 0.08 0.08 0.08 0.08 0.08 0.08 0.08 0.08 0.08 0.09 0.09 0.08 0.08 0.08 0.08 0.09 0.09 0.09 0.09 0.09 0.08 0.08 0.08 0.09 0.09 0.09 0.09 0.09 0.09 0.09 0.08 0.08 0.08 0.08 0.08 0.08 0.08 0.08 0.08 0.08 0.08 0.08 0.08 0.08 0.08 0.08 0.08 0.08 0.08 0.08 0.08 0.08 0.08 0.08 0.08 0.07 0.07 0.08 0.08 0.08 0.07 0.07 0.07 0.07 0.07 0.07 0.07 0.07 0.07 0.07 0.07 0.06
0.09 0.09 0.09 0.08 0.08 0.08 0.08 0.08 0.08 0.08 0.08 0.08 0.08 0.08 0.08 0.08 0.08 0.08 0.08 0.08 0.08 0.08 0.08 0.08 0.08 0.09 0.08 0.08 0.08 0.08 0.08 0.08 0.08 0.08 0.08 0.09 0.09 0.09 0.09 0.08 0.08 0.08 0.08 0.08 0.08 0.08 0.07 0.07 0.07 0.07 0.07 0.07 0.07 0.07 0.07 0.07 0.07 0.07 0.07 0.07 0.07 0.07 0.07 0.07 0.07 0.07 0.07 0.07 0.07 0.07 0.07 0.07 0.07 0.07 0.07 0.07 0.07 0.07 0.07 0.07 0.07 0.06 0.06 0.06 0.06
0.09 0.09 0.08 0.08 0.08 0.08 0.08 0.08 0.08 0.08 0.08 0.08 0.08 0.08 0.08 0.08 0.08 0.08 0.08 0.08 0.08 0.08 0.08 0.08 0.08 0.08 0.08 0.08 0.08 0.08 0.08 0.08 0.08 0.08 0.08 0.09 0.09 0.08 0.08 0.07 0.07 0.07 0.07 0.07 0.07 0.07 0.07 0.07 0.07 0.07 0.07 0.07 0.07 0.07 0.07 0.07 0.07 0.07 0.07 0.07 0.06 0.06 0.06 0.06 0.06 0.06 0.06 0.06 0.06 0.06 0.06 0.06 0.06 0.06 0.06 0.06 0.06 0.06 0.06 0.06 0.06 0.06 0.06 0.06 0.06
0.09 0.08 0.08 0.08 0.08 0.08 0.08 0.08 0.08 0.08 0.08 0.08 0.08 0.08 0.08 0.08 0.08 0.08 0.08 0.08 0.08 0.08 0.08 0.08 0.08 0.08 0.08 0.08 0.08 0.08 0.08 0.07 0.08 0.08 0.08 0.08 0.08 0.08 0.07 0.07 0.07 0.07 0.07 0.07 0.07 0.07 0.07 0.07 0.07 0.07 0.07 0.07 0.07 0.07 0.07 0.06 0.06 0.06 0.06 0.06 0.06 0.06 0.06 0.06 0.06 0.06 0.06 0.06 0.05 0.05 0.05 0.05 0.05 0.05 0.05 0.05 0.05 0.05 0.05 0.05 0.05 0.06 0.06 0.06 0.06
0.08 0.08 0.08 0.08 0.08 0.08 0.08 0.08 0.08 0.08 0.08 0.08 0.08 0.08 0.08 0.08 0.08 0.08 0.08 0.08 0.08 0.08 0.08 0.08 0.08 0.08 0.07 0.07 0.08 0.07 0.07 0.07 0.07 0.07 0.08 0.08 0.07 0.07 0.07 0.07 0.07 0.07 0.07 0.07 0.07 0.07 0.07 0.07 0.07 0.07 0.07 0.07 0.06 0.06 0.06 0.06 0.06 0.06 0.06 0.06 0.06 0.06 0.05 0.05 0.05 0.05 0.05 0.05 0.05 0.05 0.05 0.05 0.05 0.05 0.05 0.04 0.04 0.04 0.05 0.05 0.05 0.05 0.05 0.05 0.05
0.08 0.08 0.08 0.08 0.08 0.08 0.08 0.08 0.08 0.08 0.08 0.08 0.08 0.08 0.08 0.08 0.08 0.08 0.08 0.08 0.08 0.08 0.08 0.08 0.08 0.07 0.07 0.07 0.07 0.07 0.07 0.07 0.07 0.07 0.07 0.07 0.07 0.07 0.07 0.07 0.07 0.07 0.07 0.07 0.07 0.07 0.07 0.07 0.07 0.07 0.06 0.06 0.06 0.06 0.06 0.06 0.06 0.05 0.05 0.05 0.05 0.05 0.04 0.04 0.04 0.04 0.04 0.04 0.04 0.04 0.04 0.04 0.04 0.04 0.04 0.04 0.04 0.04 0.04 0.04 0.04 0.04 0.04 0.04 0.04
0.08 0.08 0.08 0.08 0.08 0.08 0.08 0.08 0.08 0.08 0.08 0.08 0.08 0.08 0.08 0.08 0.08 0.08 0.07 0.07 0.07 0.07 0.07 0.07 0.07 0.07 0.07 0.07 0.07 0.07 0.06 0.06 0.07 0.07 0.07 0.07 0.07 0.07 0.07 0.07 0.07 0.07 0.07 0.07 0.07 0.07 0.06 0.06 0.06 0.06 0.06 0.06 0.06 0.06 0.05 0.05 0.05 0.04 0.04 0.04 0.04 0.04 0.04 0.04 0.04 0.04 0.04 0.04 0.04 0.04 0.04 0.04 0.04 0.04 0.04 0.04 0.04 0.04 0.04 0.04 0.04 0.04 0.04 0.04 0.04
0.08 0.08 0.08 0.08 0.08 0.08 0.08 0.08 0.08 0.08 0.08 0.08 0.08 0.08 0.08 0.08 0.08 0.08 0.07 0.07 0.07 0.07 0.07 0.07 0.07 0.07 0.07 0.07 0.07 0.07 0.07 0.06 0.07 0.07 0.07 0.07 0.07 0.07 0.07 0.07 0.07 0.07 0.07 0.07 0.06 0.06 0.06 0.06 0.06 0.06 0.05 0.05 0.05 0.05 0.04 0.04 0.04 0.04 0.04 0.04 0.04 0.03 0.03 0.03 0.03 0.03 0.03 0.03 0.03 0.03 0.03 0.03 0.03 0.03 0.03 0.03 0.03 0.03 0.03 0.03 0.03 0.03 0.03 0.03 0.03
0.08 0.08 0.08 0.08 0.08 0.08 0.08 0.08 0.08 0.08 0.08 0.08 0.08 0.08 0.08 0.08 0.08 0.07 0.07 0.07 0.07 0.07 0.07 0.07 0.07 0.07 0.07 0.07 0.07 0.07 0.07 0.07 0.07 0.06 0.06 0.07 0.07 0.07 0.07 0.07 0.07 0.07 0.07 0.06 0.06 0.06 0.06 0.06 0.05 0.05 0.05 0.04 0.04 0.04 0.04 0.04 0.04 0.03 0.03 0.03 0.03 0.03 0.03 0.03 0.03 0.03 0.03 0.03 0.03 0.03 0.03 0.03 0.03 0.03 0.03 0.03 0.03 0.03 0.03 0.03 0.03 0.03 0.03 0.03 0.03
0.09 0.09 0.08 0.08 0.08 0.08 0.08 0.08 0.08 0.08 0.08 0.08 0.08 0.08 0.08 0.07 0.07 0.07 0.07 0.07 0.06 0.06 0.06 0.06 0.06 0.06 0.06 0.06 0.06 0.07 0.07 0.07 0.06 0.06 0.06 0.07 0.07 0.07 0.07 0.07 0.07 0.06 0.06 0.06 0.06 0.06 0.05 0.05 0.05 0.04 0.04 0.04 0.04 0.04 0.04 0.03 0.03 0.03 0.03 0.03 0.03 0.03 0.03 0.03 0.03 0.03 0.03 0.03 0.03 0.03 0.03 0.03 0.03 0.03 0.03 0.03 0.03 0.03 0.03 0.03 0.03 0.03 0.03 0.03 0.03
0.09 0.08 0.08 0.08 0.08 0.08 0.08 0.07 0.07 0.07 0.07 0.07 0.07 0.07 0.07 0.07 0.07 0.06 0.06 0.06 0.06 0.06 0.06 0.06 0.06 0.06 0.06 0.06 0.06 0.06 0.06 0.06 0.06 0.06 0.07 0.07 0.07 0.07 0.07 0.06 0.06 0.06 0.06 0.06 0.05 0.05 0.05 0.04 0.04 0.04 0.04 0.04 0.04 0.03 0.03 0.03 0.03 0.03 0.03 0.03 0.03 0.03 0.03 0.03 0.03 0.03 0.03 0.03 0.03 0.03 0.03 0.03 0.03 0.03 0.03 0.03 0.03 0.03 0.03 0.03 0.03 0.03 0.03 0.03 0.03
0.09 0.08 0.08 0.08 0.07 0.07 0.07 0.07 0.07 0.07 0.07 0.06 0.06 0.06 0.06 0.06 0.06 0.05 0.05 0.05 0.05 0.05 0.05 0.05 0.05 0.05 0.05 0.05 0.06 0.06 0.06 0.06 0.07 0.07 0.07 0.07 0.07 0.07 0.06 0.06 0.06 0.06 0.05 0.05 0.05 0.04 0.04 0.04 0.04 0.03 0.03 0.03 0.03 0.03 0.03 0.03 0.03 0.03 0.03 0.03 0.03 0.03 0.03 0.03 0.03 0.03 0.03 0.03 0.03 0.03 0.03 0.03 0.03 0.02 0.02 0.02 0.02 0.02 0.02 0.02 0.02 0.02 0.02 0.02 0.02
0.08 0.08 0.07 0.07 0.07 0.06 0.06 0.06 0.06 0.06 0.06 0.05 0.05 0.05 0.05 0.05 0.05 0.05 0.05 0.05 0.05 0.05 0.05 0.05 0.05 0.05 0.05 0.06 0.06 0.06 0.06 0.06 0.07 0.07 0.07 0.07 0.06 0.06 0.06 0.06 0.05 0.05 0.05 0.04 0.04 0.04 0.04 0.04 0.03 0.03 0.03 0.03 0.03 0.03 0.03 0.03 0.03 0.03 0.03 0.03 0.03 0.03 0.03 0.03 0.03 0.03 0.03 0.03 0.03 0.03 0.03 0.03 0.03 0.02 0.02 0.02 0.02 0.02 0.02 0.02 0.02 0.02 0.02 0.02 0.02
0.08 0.07 0.07 0.06 0.06 0.06 0.05 0.05 0.05 0.05 0.05 0.05 0.05 0.05 0.05 0.05 0.05 0.05 0.05 0.05 0.05 0.05 0.05 0.05 0.05 0.05 0.06 0.06 0.06 0.06 0.06 0.07 0.07 0.07 0.07 0.06 0.06 0.06 0.06 0.05 0.05 0.05 0.04 0.04 0.04 0.04 0.03 0.03 0.03 0.03 0.03 0.03 0.03 0.03 0.03 0.03 0.03 0.03 0.03 0.03 0.03 0.03 0.03 0.03 0.03 0.03 0.03 0.03 0.03 0.03 0.03 0.03 0.02 0.02 0.02 0.02 0.02 0.02 0.02 0.02 0.02 0.02 0.02 0.02 0.02
0.07 0.06 0.06 0.06 0.05 0.05 0.05 0.05 0.05 0.05 0.05 0.05 0.05 0.05 0.05 0.05 0.05 0.05 0.05 0.05 0.05 0.05 0.05 0.05 0.05 0.06 0.06 0.06 0.06 0.07 0.07 0.07 0.07 0.07 0.07 0.06 0.06 0.05 0.05 0.05 0.04 0.04 0.04 0.04 0.04 0.03 0.03 0.03 0.03 0.03 0.03 0.03 0.03 0.03 0.03 0.03 0.03 0.03 0.03 0.03 0.03 0.03 0.03 0.03 0.03 0.03 0.03 0.03 0.03 0.03 0.02 0.02 0.02 0.02 0.02 0.02 0.02 0.02 0.02 0.02 0.02 0.02 0.02 0.02 0.02
0.06 0.06 0.05 0.05 0.05 0.05 0.05 0.05 0.05 0.05 0.05 0.05 0.05 0.05 0.05 0.05 0.05 0.05 0.05 0.05 0.05 0.05 0.05 0.05 0.06 0.06 0.06 0.07 0.07 0.07 0.07 0.07 0.07 0.06 0.06 0.06 0.05 0.05 0.05 0.04 0.04 0.04 0.04 0.03 0.03 0.03 0.03 0.03 0.03 0.03 0.03 0.03 0.03 0.03 0.03 0.03 0.03 0.03 0.03 0.03 0.03 0.03 0.03 0.03 0.03 0.03 0.03 0.03 0.03 0.03 0.03 0.02 0.02 0.02 0.02 0.02 0.02 0.02 0.02 0.02 0.02 0.02 0.02 0.02 0.02
0.06 0.05 0.05 0.05 0.05 0.05 0.05 0.05 0.05 0.05 0.05 0.05 0.05 0.05 0.05 0.05 0.05 0.05 0.05 0.05 0.05 0.05 0.06 0.06 0.06 0.06 0.07 0.07 0.07 0.07 0.07 0.06 0.06 0.06 0.06 0.05 0.05 0.05 0.04 0.04 0.04 0.04 0.03 0.03 0.03 0.03 0.03 0.03 0.03 0.03 0.03 0.03 0.03 0.03 0.03 0.03 0.03 0.03 0.03 0.03 0.03 0.03 0.03 0.03 0.03 0.03 0.03 0.03 0.03 0.03 0.03 0.02 0.02 0.02 0.02 0.02 0.02 0.02 0.02 0.02 0.02 0.02 0.02 0.02 0.02
0.05 0.05 0.05 0.05 0.05 0.05 0.05 0.05 0.05 0.05 0.05 0.05 0.05 0.05 0.05 0.05 0.05 0.05 0.05 0.05 0.06 0.06 0.06 0.06 0.06 0.07 0.07 0.07 0.07 0.06 0.06 0.06 0.06 0.06 0.05 0.05 0.05 0.04 0.04 0.04 0.04 0.03 0.03 0.03 0.03 0.03 0.03 0.03 0.03 0.03 0.03 0.03 0.03 0.03 0.03 0.03 0.03 0.03 0.03 0.03 0.03 0.03 0.03 0.03 0.03 0.03 0.03 0.03 0.03 0.03 0.03 0.03 0.02 0.02 0.02 0.02 0.02 0.02 0.02 0.02 0.02 0.02 0.02 0.02 0.03
Wind_Speed
39 40 41 42 43 44 44 45 46 46 47 48 48 49 49 49 50 50 51 51 51 51 51 51 51 51 51 52 52 52 52 51 51 51 51 51 51 51 51 51 51 51 50 51 51 51 50 50 50 49 49 49 49 49 49 49 49 50 50 50 50 50 51 51 52 52 52 52 52 53 53 54 55 55 55 56 56 57 58 58 58 59 59 59 58
40 41 41 42 43 44 45 45 46 47 47 48 48 49 49 49 50 50 50 50 50 51 51 51 51 51 51 51 51 51 51 51 51 50 50 50 50 50 50 50 50 50 50 51 50 50 50 49 50 49 49 49 49 49 49 49 50 50 50 50 51 51 51 51 52 53 53 53 53 54 54 54 54 55 55 55 56 57 57 58 58 59 59 59 58
41 41 42 43 44 44 45 46 46 47 48 48 48 49 49 49 49 49 50 49 49 50 50 50 50 50 50 50 50 50 50 50 50 49 50 50 50 50 50 50 50 50 50 50 50 49 49 49 49 49 48 49 49 49 50 50 50 50 50 50 51 51 51 51 52 53 53 53 53 53 54 54 54 55 55 56 57 57 57 58 58 59 59 59 58
42 42 43 44 44 45 46 46 47 47 48 48 48 49 49 49 48 48 48 48 48 48 49 49 49 49 49 49 48 48 48 48 48 49 49 49 49 50 50 50 50 50 50 50 49 49 49 49 49 49 48 49 50 50 50 50 50 50 50 50 51 51 51 51 52 53 53 54 54 54 54 54 55 55 56 57 57 57 58 58 58 58 58 58 58
42 43 44 45 45 46 46 47 47 47 47 48 48 48 48 47 47 47 46 47 47 47 47 47 47 47 47 46 46 46 47 47 47 48 48 48 48 49 49 49 49 49 49 49 49 49 50 50 49 49 49 49 50 50 50 50 50 50 50 50 50 51 51 51 52 53 53 54 54 54 55 55 56 56 56 57 57 57 57 58 58 58 58 57 57
42 43 44 45 45 46 46 47 47 47 47 47 46 46 46 45 45 45 45 45 45 45 45 45 45 45 45 45 45 45 46 46 47 47 47 47 47 47 48 48 48 48 49 49 49 50 50 50 49 49 49 49 49 49 50 50 50 50 50 50 50 51 51 51 52 53 54 55 55 55 56 56 56 56 56 56 56 56 56 56 56 55 55 55 55
43 44 45 45 45 46 46 46 46 46 46 45 45 45 44 44 44 44 44 44 44 44 43 43 43 43 43 44 44 44 45 45 45 45 46 46 46 47 47 47 48 48 49 49 49 49 49 49 49 49 49 49 49 49 49 50 50 50 50 50 51 51 51 52 52 53 54 55 56 56 56 56 55 55 54 54 54 53 53 52 52 51 51 51 51
44 45 45 45 45 45 45 45 45 45 44 44 44 43 43 43 43 43 43 43 42 42 42 42 42 42 43 43 43 43 44 44 44 44 45 45 46 46 47 47 48 48 48 48 48 48 48 48 48 48 49 49 49 49 50 50 50 50 50 50 51 51 52 52 53 54 54 55 55 55 55 54 53 52 51 51 50 50 49 49 49 48 48 48 48
45 45 45 45 45 44 44 44 43 43 43 43 42 42 42 43 42 42 42 41 41 41 41 41 41 41 42 42 42 42 42 43 43 44 44 45 45 46 47 47 47 47 47 47 47 47 47 48 48 48 49 49 49 50 50 50 50 51 51 51 51 52 52 53 53 54 54 54 54 53 52 52 50 49 48 48 47 47 47 47 47 46 46 46 46
45 45 44 44 44 43 43 43 42 42 42 42 42 42 42 42 41 41 40 40 40 40 40 40 40 40 41 41 41 41 42 42 43 43 44 45 45 46 46 46 46 46 46 47 47 47 47 47 48 48 49 49 49 50 50 50 51 51 51 52 52 52 53 53 53 53 53 53 52 51 50 49 48 46 46 46 45 45 45 45 45 44 44 43 43
44 43 43 43 43 42 42 42 42 42 42 42 42 41 41 41 40 39 39 39 39 39 39 39 39 39 39 40 40 41 41 41 42 43 44 44 44 45 45 45 46 46 46 46 47 47 47 47 48 48 49 49 50 50 51 51 52 52 52 53 53 53 53 53 53 52 51 51 50 49 48 47 45 45 45 44 44 44 44 43 43 42 41 41 40
43 43 42 42 42 42 42 42 42 42 42 41 41 41 40 39 38 38 38 38 38 38 38 38 38 38 38 39 39 40 40 41 42 42 43 44 44 44 45 45 46 46 46 46 46 47 47 47 48 48 49 49 50 50 51 52 52 53 53 53 54 53 53 53 52 51 50 50 48 47 45 45 44 43 43 43 42 42 42 41 41 40 39 39 38
42 42 42 41 41 41 42 42 41 41 41 40 40 39 38 38 37 37 37 37 36 36 36 36 36 37 37 38 38 39 39 40 41 42 43 43 44 44 45 45 46 46 46 46 46 47 47 47 48 48 48 49 50 50 51 52 53 53 53 53 53 53 53 52 52 50 49 48 46 45 44 43 43 42 42 42 41 41 40 40 39 39 38 38 37
42 41 41 41 41 41 41 41 40 40 39 38 38 37 36 36 36 36 36 35 35 35 35 35 36 36 37 37 38 38 39 40 41 42 43 43 44 44 45 45 46 46 46 46 47 47 47 47 47 48 48 49 50 51 52 52 52 53 53 52 52 51 51 51 50 49 47 46 45 45 44 43 43 42 41 41 41 40 39 39 38 38 37 37 36
41 41 41 41 41 40 40 39 39 38 37 37 36 36 35 35 35 34 34 34 33 33 34 34 35 35 36 36 37 38 39 40 41 41 42 43 43 44 44 45 45 46 46 46 47 47 47 47 48 48 49 50 50 51 51 52 52 52 52 51 51 50 49 49 48 47 46 45 45 45 44 43 43 42 41 40 40 39 39 38 37 37 36 36 35
41 40 40 40 39 39 38 38 37 36 36 35 35 34 34 34 33 33 32 32 32 33 33 34 34 35 35 36 37 38 39 40 40 41 42 43 43 43 44 44 45 46 46 46 46 47 47 47 48 49 49 50 50 51 51 51 51 51 51 50 49 48 48 47 47 46 46 45 45 45 44 43 43 42 41 40 39 38 38 37 36 36 36 36 35
40 39 38 38 37 37 37 36 36 35 35 34 33 33 33 32 32 31 31 31 32 32 33 33 34 34 35 36 37 38 39 40 41 42 42 43 44 44 44 45 45 46 46 46 46 47 48 48 48 49 49 49 49 50 50 50 50 49 49 48 47 47 46 45 45 45 45 45 45 45 45 44 43 42 41 40 39 38 37 37 36 35 36 36 35
38 37 37 36 36 36 36 35 34 34 33 32 32 32 31 31 31 30 30 31 32 32 33 33 34 35 36 36 37 38 39 40 41 42 43 44 45 45 45 46 46 46 46 46 47 47 48 48 48 48 48 49 49 49 49 49 48 47 46 46 46 46 44 43 43 43 44 44 44 44 44 44 43 42 41 40 40 39 39 38 37 37 37 36 36
36 36 36 36 36 35 34 33 33 32 31 31 31 30 30 30 30 30 31 31 32 32 33 34 35 35 36 37 38 39 40 41 42 43 44 45 45 45 45 45 45 46 46 47 47 48 48 48 49 49 49 49 49 49 48 47 46 46 45 45 45 44 43 42 42 42 42 42 42 42 42 42 41 41 40 39 39 39 39 38 37 37 37 37 37
36 36 35 35 34 34 33 32 31 30 30 30 29 29 29 29 30 30 31 31 32 33 33 34 35 36 37 38 39 40 41 41 42 43 44 44 45 44 44 45 45 46 46 47 47 47 47 47 48 48 49 49 48 48 47 46 46 45 45 44 44 43 42 42 42 42 42 42 42 42 42 41 41 40 39 39 38 38 39 38 38 38 38 37 37
35 35 34 33 32 31 30 30 29 29 29 28 29 29 29 30 30 30 31 32 32 33 34 35 36 37 38 39 40 41 41 41 42 43 43 44 44 44 44 45 45 46 46 46 46 46 46 46 46 47 48 48 48 47 46 46 45 44 44 44 44 43 43 43 43 43 42 42 41 41 41 41 40 40 39 39 38 38 38 39 39 39 39 39 38
34 33 32 31 30 29 28 28 28 28 28 28 29 29 29 29 30 31 31 32 33 34 35 36 37 38 39 40 40 40 41 41 41 42 43 43 44 45 45 45 45 45 46 46 45 46 46 46 46 46 47 47 47 46 45 45 45 44 44 44 43 43 43 42 42 42 42 41 41 41 40 40 40 39 39 38 38 38 38 39 39 40 40 41 41
31 30 29 28 28 28 28 28 28 28 28 28 28 29 29 30 30 31 32 33 34 35 36 37 38 39 39 40 40 40 41 41 41 42 43 44 45 45 45 45 45 45 45 45 45 45 45 45 45 46 46 46 45 45 44 44 44 43 43 43 43 42 42 41 40 40 40 40 40 40 40 39 39 39 38 38 38 38 39 39 39 40 40 41 41
29 29 28 28 28 27 27 27 27 27 27 28 28 28 29 30 31 32 32 33 34 36 37 37 38 39 39 39 40 40 40 40 41 42 43 44 44 45 45 44 44 44 44 45 45 45 45 45 45 45 45 45 44 43 43 43 42 42 42 42 42 41 40 40 40 40 39 39 39 39 39 38 38 38 38 39 39 39 39 40 40 40 40 41 41
29 28 28 27 27 27 26 27 27 27 27 27 28 29 30 31 32 32 33 34 35 36 37 37 38 38 39 39 39 40 40 40 41 42 42 43 43 43 43 43 43 44 44 44 44 44 45 45 45 45 44 43 42 41 41 41 41 41 41 41 41 40 40 40 40 40 41 40 40 39 39 38 38 38 38 39 39 40 40 40 41 41 41 41 41
27 27 26 26 26 26 26 27 27 27 28 28 29 30 31 31 32 33 34 35 35 36 37 37 38 38 38 39 39 40 40 41 41 41 42 42 42 42 42 43 43 43 43 44 44 45 45 45 44 44 42 41 41 40 40 40 41 41 41 41 41 41 41 41 42 42 42 42 42 42 41 41 40 39 39 39 39 40 40 40 41 41 41 41 42
26 26 26 26 26 26 27 27 27 28 28 29 30 30 31 32 33 34 35 35 36 36 37 37 37 38 38 39 39 40 41 41 41 41 41 41 41 41 41 41 42 42 43 43 43 43 43 42 42 41 40 40 40 40 40 40 40 41 41 41 41 41 42 42 42 43 43 43 43 43 43 43 42 42 41 41 41 41 41 41 41 42 42 42 43
25 26 26 26 26 27 27 28 28 28 29 30 30 31 32 33 33 34 35 35 36 36 37 37 37 38 38 39 40 40 41 41 41 40 40 40 40 40 40 40 40 40 41 41 41 41 41 40 39 39 38 38 39 39 39 40 40 40 40 40 40 41 41 42 42 42 43 43 43 44 43 43 44 44 43 43 43 43 42 42 43 43 43 43 43
26 26 26 26 27 27 28 28 28 29 30 30 31 32 33 33 34 35 35 35 36 36 37 37 37 38 39 39 40 40 41 40 40 40 40 40 39 39 39 39 39 40 40 40 41 40 40 39 38 38 37 38 38 38 39 39 39 40 40 40 40 41 41 41 42 42 42 43 43 43 44 44 44 44 44 44 44 44 44 44 44 44 43 44 44
26 26 26 27 27 28 28 29 29 30 30 31 32 33 33 34 35 35 35 36 36 37 37 38 38 39 39 40 41 41 41 41 41 41 41 40 40 40 40 39 39 40 40 40 39 39 38 37 37 37 37 37 37 38 38 39 39 40 40 41 41 41 42 42 42 42 43 43 43 44 44 44 44 44 45 45 45 45 45 45 45 45 45 45 45
26 27 27 27 28 28 29 29 30 30 31 32 33 33 34 34 35 36 36 36 37 37 38 39 39 40 40 41 41 41 41 41 41 41 41 40 40 39 39 38 38 38 38 38 37 36 35 35 35 35 36 37 37 38 39 39 40 40 41 41 41 41 42 42 42 43 43 43 44 44 44 45 45 45 46 46 46 46 46 46 46 46 46 46 46
27 27 27 28 28 29 29 30 30 31 32 32 33 34 34 35 35 36 36 36 37 38 39 39 40 40 41 41 41 41 41 41 40 40 40 39 38 38 38 38 39 39 39 38 37 35 35 35 35 35 36 37 37 38 39 39 40 40 41 41 41 41 42 42 43 43 44 44 44 45 45 45 46 46 46 47 47 47 47 47 47 47 48 48 48
27 28 28 28 29 29 30 30 31 32 32 33 34 34 35 35 36 36 37 37 38 39 39 40 40 41 41 41 41 41 41 41 41 40 40 39 39 38 38 38 38 38 37 36 36 35 35 36 36 36 37 37 37 37 38 38 38 39 39 39 39 39 40 40 41 42 42 43 44 45 46 46 47 47 48 48 48 48 48 48 48 48 48 48 49
27 28 28 29 29 30 30 31 32 32 33 34 34 35 36 36 37 37 38 38 39 39 40 40 40 40 41 41 41 41 41 41 41 40 40 39 39 39 38 37 37 36 35 35 35 35 35 36 36 36 36 37 37 37 37 37 38 38 38 39 39 39 40 40 40 41 41 42 43 43 44 45 46 47 48 48 49 49 49 49 49 49 49 49 49
28 28 29 29 30 30 31 31 32 33 34 34 35 36 37 37 38 38 39 39 40 40 40 40 40 41 41 41 41 41 41 41 40 40 39 39 38 38 37 36 36 36 35 35 35 35 35 36 36 36 36 36 36 36 37 37 38 38 39 40 40 41 42 42 42 43 43 43 43 44 44 44 44 45 46 47 48 49 50 50 50 50 50 50 50
28 29 29 29 30 30 31 32 33 34 35 35 36 37 38 38 39 39 40 40 40 40 41 41 41 41 41 41 41 41 41 40 40 39 38 38 37 37 36 36 36 36 36 35 35 35 35 35 35 35 35 35 35 36 37 37 38 39 40 40 41 42 43 43 44 45 45 45 45 46 46 46 46 46 46 47 47 48 49 50 51 51 51 51 51
28 29 29 30 30 31 32 33 34 35 36 36 37 38 39 39 40 40 40 40 41 41 41 41 41 41 41 41 41 40 40 40 39 39 38 38 37 37 37 36 36 35 35 35 35 35 34 34 34 34 34 34 35 36 36 37 38 39 40 41 41 42 43 43 44 45 45 46 46 47 47 47 47 47 47 47 47 47 47 47 48 49 49 50 50
29 29 30 30 31 32 33 34 35 36 37 38 38 39 39 40 40 40 40 41 41 41 41 41 41 41 41 41 40 40 40 39 39 38 38 37 37 36 36 35 34 34 34 34 34 34 33 33 33 33 34 34 35 36 36 37 38 39 40 40 41 42 43 43 44 44 45 45 46 46 46 46 47 47 47 47 47 47 47 47 46 46 46 47 47
29 30 30 31 32 33 34 36 37 37 38 39 39 39 40 40 40 41 41 41 41 41 41 41 41 41 41 41 41 40 39 38 37 37 37 36 36 35 34 34 33 33 33 33 32 32 32 32 33 34 34 35 36 36 37 38 38 39 40 40 41 41 42 43 43 44 44 45 45 46 46 46 46 46 46 46 47 47 47 47 47 47 46 46 46
30 31 32 33 34 35 36 37 37 38 38 39 39 40 40 41 41 41 41 41 41 41 41 41 41 41 41 41 40 39 38 37 36 36 35 35 34 33 32 32 32 32 32 31 31 31 31 32 33 34 35 35 36 37 37 38 39 39 40 40 41 42 42 42 43 43 44 44 44 45 45 45 45 46 46 46 46 47 47 47 47 47 47 46 46
31 32 33 35 35 36 37 37 38 38 39 39 40 40 41 41 42 42 42 42 42 42 42 41 41 41 41 40 39 38 37 35 35 34 34 33 32 31 31 30 30 30 30 30 30 31 32 32 33 34 35 35 36 37 37 38 39 39 40 41 41 42 42 42 42 43 43 43 43 43 44 44 44 44 44 44 44 44 45 45 45 45 45 46 46
33 34 35 35 36 37 37 38 38 39 39 40 40 41 41 42 42 42 42 42 42 42 41 41 40 40 39 39 38 37 35 34 33 33 32 31 30 29 29 29 29 29 29 29 30 31 32 32 33 34 34 35 36 37 38 38 39 39 40 40 40 40 40 41 41 41 41 42 42 41 41 41 41 41 41 40 40 40 41 41 41 41 42 42 42
33 34 35 36 36 37 38 38 39 39 40 41 41 42 42 42 42 42 42 42 41 41 40 40 39 38 37 36 35 34 33 32 31 30 30 28 27 27 27 27 27 28 28 29 30 30 31 32 33 34 35 36 36 37 37 38 38 38 38 39 39 39 39 39 39 39 39 39 39 38 38 37 37 37 37 36 36 36 37 37 37 37 37 37 38
34 35 35 36 37 38 38 39 39 40 41 41 42 42 42 42 42 42 41 41 40 39 38 38 37 36 35 33 32 31 30 29 28 27 26 25 25 25 25 26 27 27 28 29 29 30 31 32 33 34 35 36 36 37 37 37 37 37 37 37 37 37 37 37 37 37 36 36 35 35 34 34 33 33 33 33 32 32 33 33 33 34 34 34 34
34 35 36 37 38 38 39 39 40 40 41 41 41 41 41 41 41 40 40 39 38 37 36 35 34 32 31 30 28 27 26 26 25 24 23 23 24 24 25 26 26 27 28 29 30 30 31 32 33 34 35 36 36 36 36 36 36 36 36 36 36 36 35 35 34 34 33 32 32 31 30 30 29 29 29 29 29 29 29 29 29 29 30 30 30
35 36 37 37 38 39 39 39 39 39 39 40 40 40 39 39 38 38 37 36 35 34 32 31 29 28 27 25 24 23 23 22 22 22 22 22 23 24 25 26 26 27 28 29 30 31 31 32 33 34 35 35 35 35 36 36 35 35 34 34 34 33 32 31 30 29 29 28 28 27 27 26 26 26 26 25 25 25 25 25 25 25 25 26 26
36 36 37 38 38 38 38 38 38 38 38 38 38 38 37 36 35 34 33 32 31 29 28 26 25 24 22 21 21 20 20 20 20 21 22 22 23 24 25 25 26 27 28 29 30 31 31 32 33 34 34 34 34 34 34 34 33 33 32 32 30 29 28 27 26 26 25 25 24 24 23 23 22 22 22 21 21 21 21 22 22 21 21 22 22
36 37 37 37 37 36 36 36 36 36 36 36 35 34 34 33 32 30 29 28 26 25 24 22 21 20 19 19 18 19 19 20 21 21 22 22 23 24 24 25 26 27 28 29 30 31 31 32 33 33 32 32 31 31 31 31 30 30 29 27 26 25 24 23 23 22 22 21 21 20 20 19 18 18 18 17 17 17 18 18 18 18 18 18 18
36 36 36 35 35 34 34 34 34 34 34 33 32 31 30 29 28 27 26 24 23 22 21 19 18 18 17 18 18 19 20 20 21 21 22 22 23 24 24 25 26 27 28 29 30 31 31 31 31 31 30 29 29 28 28 28 27 26 24 23 22 22 21 20 20 19 19 18 17 17 16 15 15 15 14 14 14 14 14 14 14 15 15 15 15
36 35 34 33 33 33 33 33 32 32 31 30 29 28 27 26 25 24 23 22 21 20 19 18 17 17 18 18 19 19 20 20 21 21 22 23 23 24 25 26 27 27 28 29 29 30 30 30 29 28 27 27 27 27 26 25 24 23 21 20 20 19 18 18 18 17 16 15 14 13 13 12 12 11 11 11 10 10 10 11 11 11 11 12 12
34 33 32 32 32 31 31 31 30 29 28 27 27 26 25 24 24 22 21 20 19 19 18 18 18 18 18 19 19 20 20 20 21 21 22 23 24 24 25 26 26 27 28 28 29 28 28 27 27 26 26 25 25 25 24 23 22 21 19 19 18 17 16 16 15 15 14 13 12 10 10 9 8 8 8 7 7 7 7 7 7 8 8 9 9
Wind_Direction
284 284 284 284 283 283 283 283 283 283 282 282 281 280 280 280 280 279 279 278 278 277 276 275 275 274 273 272 271 271 270 271 271 271 271 271 271 272 271 271 272 272 273 273 274 274 274 274 274 274 274 275 275 276 277 278 279 280 279 279 278 277 277 276 277 278 278 278 278 278 278 278 278 277 277 277 276 275 275 275 274 274 273 273 273
285 285 285 285 285 285 285 285 285 284 283 282 282 281 281 281 281 280 279 279 278 277 276 276 275 274 273 272 271 271 271 271 271 271 271 271 271 271 271 271 272 272 273 273 273 274 273 273 273 273 274 274 275 276 278 279 279 279 279 278 278 277 277 276 277 278 279 278 278 278 278 278 278 278 277 277 277 276 276 275 275 274 274 273 273
285 285 286 286 286 286 286 286 286 285 284 283 283 282 282 282 281 280 279 279 278 277 277 276 275 274 273 272 271 271 271 271 270 270 270 270 270 271 271 271 272 272 272 273 273 273 273 273 273 273 274 274 275 277 278 279 279 279 278 278 277 277 277 277 277 278 279 279 278 279 279 278 278 278 278 277 277 277 277 276 276 275 274 273 272
285 285 286 287 288 287 287 287 286 286 285 284 284 283 283 283 282 281 280 279 279 278 277 276 275 274 273 272 271 271 270 270 270 270 270 270 270 271 271 272 272 272 272 272 272 272 273 273 273 273 274 275 276 277 277 278 278 278 278 278 277 277 277 277 277 278 279 279 279 279 279 279 279 279 278 278 278 277 277 277 276 275 274 273 272
286 286 288 288 289 288 288 287 287 286 286 285 284 284 284 283 282 281 280 280 279 279 278 276 275 274 272 271 271 270 270 270 270 270 270 271 271 271 272 272 272 272 272 272 272 272 272 272 273 273 274 275 275 276 276 277 277 277 277 277 277 278 278 278 278 278 278 279 280 279 279 280 280 280 279 279 279 278 278 277 276 275 274 273 272
288 288 289 290 290 289 289 288 288 287 287 286 285 285 284 283 282 281 281 281 280 279 278 277 275 273 272 272 271 271 271 271 271 271 271 272 272 272 272 272 272 272 272 272 272 272 272 273 273 273 274 274 275 275 276 276 277 277 277 278 278 278 278 278 278 278 278 279 280 280 280 280 280 280 280 279 279 279 278 277 276 275 274 273 271
290 291 291 291 291 290 290 289 288 288 287 286 286 285 284 283 283 282 282 281 281 279 278 276 275 273 273 272 272 272 272 272 272 272 272 272 272 272 272 272 272 272 272 272 272 272 272 273 273 273 273 274 274 275 276 277 277 277 277 278 278 278 278 278 278 279 279 280 280 280 281 281 281 281 280 279 279 278 278 277 276 275 274 273 271
292 292 292 292 291 291 290 290 289 289 288 287 286 285 284 284 284 284 283 281 280 278 277 276 275 274 274 274 274 274 273 273 273 273 272 272 272 273 273 273 272 272 272 272 272 273 273 273 273 273 274 274 275 276 276 277 277 277 278 278 278 278 278 278 279 279 280 280 281 281 281 281 281 280 280 279 278 278 277 276 275 275 274 272 271
293 293 292 292 291 291 291 290 290 290 289 288 287 286 285 285 285 284 282 281 280 278 277 276 276 276 275 275 275 274 274 274 274 273 273 273 274 274 273 273 272 272 273 273 273 273 273 273 274 274 274 275 276 276 277 277 277 277 278 278 278 278 278 279 279 280 280 280 280 281 280 280 280 280 279 278 278 277 277 276 275 275 274 273 271
293 293 292 292 291 291 291 290 290 290 289 288 287 287 287 286 285 283 282 281 280 278 278 277 276 276 275 275 275 275 275 275 274 274 274 274 275 274 274 273 273 273 274 274 274 274 274 274 274 275 275 276 276 276 277 277 277 277 278 278 278 278 278 279 279 279 279 280 280 280 279 279 279 278 278 278 278 278 277 276 275 275 274 272 271
293 293 292 292 292 291 291 291 290 290 289 289 288 287 287 285 284 283 282 281 280 279 278 277 277 276 276 276 276 276 276 276 275 275 275 275 275 275 274 274 274 274 275 275 275 274 274 275 275 275 275 276 276 276 277 277 277 278 278 278 278 278 278 278 279 279 278 279 279 278 277 278 278 278 278 278 278 277 277 276 275 274 272 271 270
293 293 292 292 291 291 291 291 290 290 289 289 288 287 286 285 284 283 282 281 280 279 279 278 278 277 277 277 277 277 277 277 277 276 276 276 275 275 276 276 276 276 275 275 275 275 275 275 276 276 276 276 277 277 277 278 278 278 278 278 278 277 277 277 278 278 277 277 277 276 276 277 278 278 278 278 277 277 276 275 274 272 271 269 268
293 292 292 292 291 291 291 291 290 290 289 289 288 287 286 285 284 283 282 281 281 280 280 279 278 278 278 278 278 278 279 279 278 278 277 276 276 276 277 277 277 276 276 276 276 276 276 276 276 276 277 277 277 278 278 279 279 278 278 278 277 277 276 276 276 276 276 276 275 275 275 276 277 277 277 277 277 276 275 274 272 271 269 267 266
292 292 292 292 292 291 291 291 290 289 289 288 287 287 286 285 284 283 282 282 281 280 280 279 279 279 279 279 279 280 280 280 279 279 279 278 277 278 279 278 277 277 277 277 277 277 277 277 277 277 277 278 278 279 279 279 279 279 278 278 278 277 276 276 275 275 274 273 273 274 275 275 276 277 277 276 275 275 274 273 271 269 268 266 265
292 292 292 292 292 292 291 291 290 289 289 288 287 286 285 285 284 283 283 282 281 281 280 280 280 280 280 281 281 282 282 281 280 280 280 279 279 279 280 279 279 278 278 278 278 277 277 277 277 278 278 279 279 279 279 279 279 278 278 278 277 276 276 275 274 274 273 272 272 273 274 275 275 276 275 275 274 273 272 271 270 269 268 266 265
292 292 292 292 292 291 291 290 290 289 289 288 287 286 285 285 284 284 283 282 282 281 281 281 281 281 282 282 282 282 283 282 281 281 281 280 280 281 281 281 280 280 279 279 278 278 278 277 278 278 279 279 280 279 279 279 279 278 278 277 276 276 275 274 273 272 272 272 272 272 273 274 274 274 273 272 272 271 271 269 268 267 266 265 264
293 292 292 292 291 291 291 290 290 289 288 287 286 286 286 285 284 284 283 283 282 282 282 283 283 283 284 284 283 283 284 283 283 282 282 281 281 281 281 281 281 280 280 279 279 278 278 278 278 279 279 279 279 279 279 278 278 277 276 276 275 275 274 274 273 271 271 272 272 273 273 273 272 272 271 270 269 269 268 266 265 264 263 263 263
293 293 292 291 291 291 291 290 289 288 287 287 286 286 286 285 284 284 284 283 283 283 284 285 285 285 285 285 285 284 285 284 284 283 283 282 282 282 282 281 281 280 280 280 280 279 279 278 279 279 279 279 279 279 278 278 277 276 275 274 274 273 273 273 272 271 271 271 272 273 273 273 272 271 270 269 268 267 266 265 265 264 263 262 263
293 293 292 291 291 291 291 290 289 288 287 287 286 286 285 285 285 286 285 285 284 285 286 286 287 287 286 286 286 286 286 286 285 284 284 284 284 283 283 282 281 281 281 280 280 280 280 279 279 279 279 279 279 278 278 277 276 275 274 274 273 272 272 272 271 271 271 271 271 272 272 272 272 271 270 269 267 266 265 266 265 264 263 263 263
293 293 292 292 291 291 290 290 289 288 287 286 286 286 286 286 287 287 286 286 286 287 288 288 288 288 288 288 288 288 287 287 286 286 286 285 284 284 283 283 282 282 282 281 281 280 280 280 279 279 279 279 279 278 277 276 275 275 274 273 273 272 272 271 270 270 271 270 271 271 271 271 271 270 269 269 268 266 265 265 265 264 264 264 263
293 293 292 292 291 290 290 289 289 288 287 287 287 287 287 288 287 287 288 288 288 289 289 289 289 289 290 290 289 289 289 288 288 287 287 286 285 285 285 284 284 283 283 282 281 281 280 280 280 280 279 279 278 278 276 275 275 275 274 274 273 273 272 272 271 271 271 270 270 270 270 269 269 269 269 268 268 267 265 264 264 264 264 264 263
294 293 292 291 290 290 289 289 289 288 288 288 288 288 289 289 289 289 289 290 290 290 290 291 291 291 292 291 291 291 290 290 290 289 288 287 287 286 286 285 285 284 283 282 282 281 281 281 281 280 279 279 278 276 275 275 275 275 275 274 274 273 273 273 272 271 270 270 269 269 269 269 268 268 268 268 267 266 266 264 264 264 263 263 263
293 292 291 290 290 290 289 289 289 289 289 289 289 289 290 290 291 291 291 291 292 292 292 293 293 293 293 293 293 292 292 291 291 290 289 289 288 287 286 286 285 284 284 283 282 282 282 282 281 280 279 278 277 275 274 274 274 274 274 274 274 273 273 273 272 271 270 269 269 268 268 268 268 267 267 267 267 266 266 265 265 264 264 264 263
292 291 291 290 291 290 289 289 290 290 290 290 291 291 292 292 293 293 293 293 293 293 294 294 294 294 294 294 294 294 293 293 293 292 291 290 289 288 287 286 285 285 285 284 284 284 283 282 281 280 279 277 275 274 274 274 274 274 274 273 273 273 273 273 273 272 272 271 270 269 269 268 267 267 267 267 266 266 266 266 265 265 265 265 265
292 292 291 291 290 290 290 290 291 291 291 292 292 293 293 294 294 294 294 295 295 295 296 296 295 295 295 295 295 295 295 295 295 294 293 291 290 289 288 287 286 286 285 285 285 285 284 283 282 280 279 277 275 274 274 274 274 274 274 273 273 273 273 273 273 272 272 271 271 271 270 269 268 268 267 267 266 266 265 265 265 265 265 265 265
293 292 292 291 291 290 291 291 292 292 293 293 293 294 294 294 295 295 296 296 296 296 297 297 297 296 296 297 297 297 297 297 296 295 294 293 291 290 289 288 287 287 286 286 286 285 284 283 282 281 279 276 275 275 275 274 274 274 273 273 272 272 272 272 272 271 271 271 271 271 270 270 269 269 268 267 266 265 265 265 265 264 264 264 265
294 293 292 292 292 292 292 292 293 293 294 294 294 295 295 295 296 297 297 297 297 297 297 297 298 297 298 298 298 298 299 298 297 296 295 294 293 291 290 289 289 288 288 287 287 286 285 284 282 280 278 276 275 275 275 274 274 273 273 272 272 272 272 271 271 271 271 271 271 271 270 270 269 269 268 267 266 266 265 265 264 264 264 264 264
294 294 293 293 293 293 293 293 293 294 294 294 295 296 296 297 297 298 298 298 298 299 298 298 298 298 299 299 299 299 299 299 298 298 296 295 294 293 292 291 290 290 289 288 288 287 286 284 282 280 278 276 275 275 275 275 274 273 273 272 272 272 272 271 271 271 271 271 271 271 270 270 269 269 268 267 266 266 265 264 264 264 264 264 263
295 294 294 294 294 294 294 294 294 294 295 296 296 296 297 297 298 299 299 299 299 299 299 299 299 300 300 300 300 300 300 300 299 299 297 296 294 293 292 292 291 291 290 289 289 288 286 284 282 279 278 277 276 276 275 275 275 274 274 273 273 272 272 272 271 271 271 271 271 270 270 270 270 269 268 268 267 267 266 264 264 264 263 263 263
296 296 295 295 295 295 295 295 295 295 296 297 297 298 298 298 298 299 300 300 300 300 300 300 300 300 300 301 300 300 300 300 300 299 298 296 295 293 293 292 292 291 290 288 288 286 284 282 281 279 278 277 276 276 275 275 275 274 274 274 273 273 273 272 272 272 272 271 271 271 271 270 270 269 269 268 268 267 266 265 264 264 263 263 263
297 297 297 296 296 296 295 295 296 296 296 297 298 299 300 300 300 300 300 301 301 301 301 301 301 301 301 301 301 300 299 300 300 299 298 297 297 296 295 294 293 292 290 290 288 286 284 283 282 280 279 278 277 276 276 275 275 275 274 274 274 273 273 273 273 272 272 272 271 271 271 270 270 270 269 268 268 267 267 266 265 264 264 263 263
298 298 297 297 297 296 296 296 297 297 298 298 299 299 300 301 302 302 302 302 302 302 302 302 302 302 302 302 302 302 301 301 301 300 299 298 298 297 296 296 294 293 292 291 290 288 286 285 284 283 282 281 280 279 278 277 277 276 276 275 275 274 274 273 273 273 272 272 271 271 271 270 270 269 269 268 268 267 267 266 265 265 264 264 264
298 298 298 298 298 297 297 297 298 298 299 300 300 300 300 301 301 302 303 303 303 303 303 303 303 303 303 303 303 302 302 302 301 300 299 298 297 297 296 296 295 294 293 292 290 289 288 287 286 285 284 283 282 281 280 279 279 278 277 277 276 276 276 275 275 274 274 273 272 272 271 271 270 269 269 268 268 267 267 266 265 265 264 264 264
299 299 299 298 298 298 298 299 299 299 300 300 300 301 301 301 301 302 302 303 304 304 304 304 304 304 303 303 303 303 303 302 301 300 299 298 297 297 297 296 295 294 293 292 291 290 289 288 287 286 285 284 284 283 282 281 280 280 279 278 278 278 277 277 277 276 276 275 275 274 273 272 271 270 269 268 268 267 267 266 266 265 264 264 264
300 300 299 299 299 299 300 300 300 300 301 301 301 301 301 302 302 302 302 303 303 303 304 304 304 304 303 303 303 303 303 302 301 300 299 298 298 298 297 296 296 295 294 293 292 291 290 290 289 288 287 286 285 284 284 283 282 282 281 281 280 280 279 279 278 278 277 277 276 275 275 274 274 273 272 271 269 268 267 266 266 265 265 265 265
302 301 301 301 301 301 301 301 301 301 302 302 302 302 302 302 302 302 302 302 302 302 303 303 304 304 303 303 303 303 303 302 301 299 298 298 299 298 297 296 296 295 294 293 293 292 291 290 289 289 288 287 287 286 285 285 284 283 283 282 282 281 281 280 279 279 278 278 277 277 276 275 274 274 273 273 272 271 269 268 267 266 265 265 265
303 303 303 302 302 302 302 302 302 302 303 303 303 303 303 303 302 302 302 302 302 302 303 303 303 304 303 303 303 303 303 302 301 299 298 298 298 297 296 296 295 295 294 293 293 292 291 290 290 289 289 289 288 288 287 286 286 285 284 284 283 282 282 281 280 280 279 279 278 278 277 276 275 274 273 273 272 272 271 270 269 267 266 265 264
304 304 304 304 304 304 304 304 304 304 304 304 304 303 303 303 303 303 303 302 302 302 303 303 303 303 303 303 303 303 303 302 300 299 298 298 298 297 296 296 295 295 294 294 293 292 292 291 291 291 291 291 290 290 289 288 288 287 286 285 285 284 283 283 282 281 280 280 279 278 277 276 275 274 274 273 272 272 271 271 270 269 268 266 265
305 305 305 305 306 305 305 305 305 305 305 305 304 304 304 304 304 303 303 303 303 302 303 303 303 303 303 303 303 303 302 301 300 299 299 299 298 297 296 296 296 296 295 295 294 294 293 293 293 293 293 292 292 292 291 291 290 289 288 288 287 286 285 284 284 283 282 281 280 279 278 277 276 275 274 273 272 271 271 270 269 269 268 267 266
307 307 307 307 307 307 307 306 306 306 306 305 305 305 305 304 304 304 303 303 303 303 303 302 302 303 303 303 303 303 302 301 300 300 300 300 299 298 297 297 297 297 296 296 295 295 294 294 294 294 294 294 293 293 293 292 292 291 291 290 289 288 287 286 285 284 283 282 281 280 279 278 276 275 274 273 272 271 270 269 268 267 267 266 265
309 309 309 309 309 308 308 308 307 307 307 306 306 306 305 305 305 304 304 304 303 303 303 302 302 303 303 303 302 302 302 301 301 300 300 300 299 298 297 297 297 297 297 297 297 296 296 296 296 296 296 296 295 295 295 294 294 293 292 291 290 289 288 287 286 285 284 283 282 281 280 279 277 276 275 274 273 271 270 269 268 267 266 265 265
310 310 310 310 310 310 309 309 309 308 308 307 307 307 306 306 306 305 304 304 304 303 303 302 302 303 303 303 302 302 302 302 301 301 300 300 299 298 298 298 299 299 299 299 299 299 299 299 299 299 298 298 298 297 296 296 295 294 293 292 291 290 289 288 287 286 285 284 283 282 281 279 278 277 275 274 273 272 270 269 268 267 266 265 265
311 312 312 312 312 311 311 310 310 309 309 309 308 308 307 307 306 306 305 305 304 304 303 303 303 303 303 303 303 303 302 302 302 302 301 301 300 300 300 301 301 301 301 301 301 301 301 301 301 301 301 300 300 299 298 297 296 296 295 294 293 292 291 290 289 288 287 285 284 283 281 279 278 276 275 274 273 271 270 269 268 267 266 265 264
313 313 313 313 313 312 312 312 311 311 310 310 309 309 308 308 307 307 306 306 305 304 304 304 304 304 304 304 303 303 303 303 303 303 303 303 303 303 303 303 303 303 303 303 304 304 304 304 304 304 303 303 302 301 300 299 298 297 296 296 295 294 293 292 290 289 288 286 285 283 281 279 278 276 275 273 272 271 270 269 268 267 266 264 263
315 315 315 315 314 314 314 313 313 312 312 311 311 311 310 310 309 309 308 308 307 306 305 305 305 305 305 304 304 305 305 305 305 305 306 306 305 305 306 306 306 306 306 306 307 307 307 307 307 307 306 306 305 304 303 301 300 299 298 297 297 296 294 293 291 290 288 287 286 284 282 280 278 276 275 273 272 271 269 268 267 266 264 263 261
317 317 316 316 316 315 315 315 314 314 314 314 314 313 313 313 312 312 311 310 310 309 308 308 308 307 307 307 307 308 308 308 309 309 309 309 309 308 309 309 309 309 309 309 310 310 310 310 310 310 309 308 307 306 304 303 302 301 301 300 299 297 296 295 293 292 290 288 287 285 283 281 279 276 275 273 271 270 269 268 267 265 263 260 258
319 318 318 318 317 317 317 317 317 317 318 317 317 317 316 316 316 315 315 315 314 313 313 313 312 312 311 311 312 312 313 313 313 312 312 311 311 312 312 312 312 312 312 313 313 313 313 313 313 312 312 310 309 308 307 306 305 303 303 302 301 300 299 297 296 295 293 291 289 287 285 282 280 277 275 273 271 269 268 267 265 264 261 258 256
320 320 320 320 320 320 320 320 321 321 321 321 321 321 321 321 321 321 321 320 320 319 319 319 318 318 317 317 317 317 316 316 315 315 314 314 315 315 315 315 315 315 315 316 316 316 316 316 316 315 315 314 314 314 313 311 310 308 306 306 305 304 303 301 300 298 296 294 292 289 287 284 280 278 276 273 271 269 267 266 263 261 258 255 254
322 322 322 322 322 322 323 323 324 324 324 325 325 326 326 326 326 327 327 326 326 326 326 325 325 324 323 322 321 320 319 318 318 318 317 318 318 318 318 318 318 318 318 319 319 319 319 319 319 319 318 319 319 319 318 317 316 314 312 311 310 308 307 306 304 303 301 298 295 292 288 285 281 278 276 274 272 270 268 265 261 258 255 253 251
323 323 324 324 324 325 325 326 327 327 328 329 330 330 331 332 332 332 333 332 332 333 332 331 329 328 326 324 323 322 321 321 321 321 321 320 320 320 320 321 321 321 321 321 322 322 322 322 322 322 322 322 323 323 323 322 322 320 319 317 315 314 312 311 310 308 306 303 299 295 291 287 283 280 278 276 274 271 267 262 257 254 251 249 247
325 325 325 326 326 327 328 329 330 331 332 333 334 335 335 336 337 337 337 337 337 336 335 333 331 330 328 327 326 325 324 324 324 323 323 322 322 323 323 323 324 324 324 324 325 325 325 326 326 326 326 326 326 326 327 327 326 326 324 323 321 320 318 317 315 314 312 308 304 298 294 289 284 280 278 275 272 269 265 258 251 246 242 240 238